Tracking 34403 objects as of 12-Jun-2026
HD Live streaming from Space Station
objects crossing your sky now

USA 167

Track USA 167 now!
USA 167 is classified as:


NORAD ID: 27691
Int'l Code: 2003-008A
Perigee: 35,777.6 km
Apogee: 35,809.1 km
Inclination: 10.9 °
Period: 1,436.1 minutes
Semi major axis: 42164 km
RCS: Unknown
Launch date: March 11, 2003
Source: United States (US)
Launch site: AIR FORCE EASTERN TEST RANGE (AFETR)

Super High Frequency (SHF) for U.S. government and military; sophisticated survivability enhancement; worldwide, longhaul coverage; X-band.
Your satellite tracking list
Your tracking list is empty




NASA's NSSDC Master Catalog

Two Line Element Set (TLE):
1 27691U 03008A   26162.48331678  .00000012  00000-0  00000+0 0  9995
2 27691  10.9496  43.4583 0003729 312.9054 315.7463  1.00273193  6717
Source of the keplerian elements: McCants